| time (UTC) | temp F | wind direction | speed MPH | gust MPH | rain 1hr in | rain 24hr in | rain mn in | humidity % | barometer mb |
| 20260504174619 | 77 | 234 | 3.0 | 12.0 | 0.00 | 0.07 | 0.07 | 49 | 1002.7 |
| 20260504174359 | 78 | 248 | 3.0 | 11.0 | 0.00 | 0.07 | 0.07 | 49 | 1003.3 |
| 20260504173847 | 77 | 253 | 3.0 | 11.0 | 0.00 | 0.07 | 0.07 | 49 | 1003.4 |
| 20260504173352 | 77 | 246 | 3.0 | 8.0 | 0.00 | 0.07 | 0.07 | 48 | 1003.3 |
| 20260504173116 | 77 | 244 | 3.0 | 8.0 | 0.00 | 0.07 | 0.07 | 48 | 1002.7 |
| 20260504172857 | 77 | 273 | 4.0 | 8.0 | 0.00 | 0.07 | 0.07 | 48 | 1003.4 |
| 20260504172343 | 77 | 239 | 3.0 | 8.0 | 0.00 | 0.07 | 0.07 | 50 | 1003.4 |
| 20260504171910 | 77 | 249 | 2.0 | 10.0 | 0.00 | 0.07 | 0.07 | 50 | 1003.5 |
| 20260504171613 | 76 | 198 | 2.0 | 10.0 | 0.00 | 0.07 | 0.07 | 49 | 1003.0 |
| 20260504171356 | 77 | 239 | 2.0 | 9.0 | 0.00 | 0.07 | 0.07 | 49 | 1003.6 |
| 20260504170840 | 77 | 252 | 3.0 | 12.0 | 0.00 | 0.07 | 0.07 | 50 | 1003.7 |
| 20260504170346 | 77 | 225 | 4.0 | 11.0 | 0.00 | 0.07 | 0.07 | 48 | 1003.7 |
| 20260504170145 | 76 | 229 | 2.0 | 11.0 | 0.00 | 0.07 | 0.07 | 50 | 1003.2 |
| 20260504160421 | 74 | 244 | 3.0 | 10.0 | 0.00 | 0.07 | 0.07 | 52 | 1004.2 |
| 20260504160136 | 74 | 242 | 3.0 | 10.0 | 0.00 | 0.07 | 0.07 | 52 | 1003.6 |
| 20260504150846 | 70 | 246 | 2.0 | 7.0 | 0.00 | 0.07 | 0.07 | 60 | 1004.2 |
| 20260504150351 | 69 | 254 | 3.0 | 7.0 | 0.00 | 0.07 | 0.07 | 61 | 1004.3 |
| 20260504140855 | 64 | 229 | 3.0 | 7.0 | 0.00 | 0.07 | 0.07 | 71 | 1004.7 |
| 20260504140341 | 63 | 221 | 3.0 | 6.0 | 0.00 | 0.07 | 0.07 | 72 | 1004.7 |
| 20260504140137 | 63 | 244 | 1.0 | 7.0 | 0.00 | 0.07 | 0.07 | 73 | 1004.3 |
| 20260504130356 | 62 | 209 | 0.0 | 2.0 | 0.00 | 0.07 | 0.07 | 77 | 1004.9 |
| 20260504130151 | 61 | 209 | 0.0 | 2.0 | 0.00 | 0.07 | 0.07 | 77 | 1004.4 |
| 20260504110400 | 56 | 253 | 3.0 | 8.0 | 0.00 | 0.07 | 0.07 | 87 | 1003.6 |
| 20260504100351 | 55 | 66 | 0.0 | 1.0 | 0.00 | 0.07 | 0.07 | 87 | 1005.8 |
| 20260504100146 | 54 | 66 | 0.0 | 1.0 | 0.00 | 0.07 | 0.07 | 87 | 1005.5 |
| 20260504090138 | 55 | 159 | 0.0 | 2.0 | 0.01 | 0.07 | 0.07 | 87 | 1006.3 |
| 20260504081855 | 56 | 153 | 0.0 | 0.0 | 0.00 | 0.06 | 0.06 | 87 | 1007.1 |
| 20260504081618 | 55 | 153 | 0.0 | 0.0 | 0.01 | 0.06 | 0.06 | 87 | 1006.9 |
| 20260504081341 | 56 | 153 | 0.0 | 0.0 | 0.01 | 0.06 | 0.06 | 87 | 1007.3 |
| 20260504080846 | 56 | 153 | 0.0 | 1.0 | 0.01 | 0.06 | 0.06 | 87 | 1007.4 |
| 20260504080351 | 56 | 153 | 0.0 | 3.0 | 0.01 | 0.06 | 0.06 | 87 | 1007.5 |
| 20260504080150 | 56 | 153 | 0.0 | 3.0 | 0.01 | 0.06 | 0.06 | 87 | 1007.0 |
| 20260504070347 | 56 | 108 | 0.0 | 1.0 | 0.00 | 0.05 | 0.05 | 85 | 1007.8 |
| 20260504070144 | 56 | 108 | 0.0 | 1.0 | 0.00 | 0.05 | 0.05 | 85 | 1007.5 |
| 20260504060135 | 57 | 108 | 0.0 | 1.0 | 0.05 | 0.05 | 0.05 | 81 | 1008.4 |
| 20260504050349 | 58 | 360 | 1.0 | 2.0 | 0.00 | 0.00 | 0.00 | 73 | 1008.5 |
| 20260504050144 | 57 | 360 | 0.0 | 1.0 | 0.00 | 0.00 | 0.00 | 73 | 1008.3 |
| 20260504045854 | 58 | 360 | 0.0 | 0.0 | 0.00 | 0.00 | 0.00 | 72 | 1008.8 |
| 20260504045341 | 58 | 360 | 0.0 | 0.0 | 0.00 | 0.00 | 0.00 | 73 | 1008.8 |
| 20260504044848 | 58 | 360 | 0.0 | 1.0 | 0.00 | 0.00 | 0.00 | 72 | 1008.6 |
| 20260504044613 | 58 | 360 | 0.0 | 1.0 | 0.00 | 0.00 | 0.00 | 73 | 1008.4 |
| 20260504044355 | 58 | 360 | 0.0 | 1.0 | 0.00 | 0.00 | 0.00 | 72 | 1008.5 |
| 20260504043841 | 58 | 360 | 0.0 | 0.0 | 0.00 | 0.00 | 0.00 | 71 | 1008.8 |
| 20260504043347 | 58 | 360 | 0.0 | 0.0 | 0.00 | 0.00 | 0.00 | 71 | 1008.9 |
| 20260504043116 | 58 | 360 | 0.0 | 0.0 | 0.00 | 0.00 | 0.00 | 71 | 1008.7 |
| 20260504042852 | 58 | 360 | 0.0 | 0.0 | 0.00 | 0.00 | 0.00 | 71 | 1008.9 |
| 20260504042358 | 59 | 360 | 0.0 | 1.0 | 0.00 | 0.00 | 0.00 | 71 | 1008.6 |
| 20260504041843 | 59 | 360 | 0.0 | 3.0 | 0.00 | 0.00 | 0.00 | 71 | 1008.5 |
| 20260504041606 | 58 | 360 | 0.0 | 3.0 | 0.00 | 0.00 | 0.00 | 71 | 1008.2 |
| 20260504041348 | 59 | 360 | 1.0 | 3.0 | 0.00 | 0.00 | 0.00 | 71 | 1008.5 |
| 20260504040855 | 59 | 355 | 0.0 | 0.0 | 0.00 | 0.00 | 0.00 | 69 | 1009.0 |
| 20260504040345 | 60 | 355 | 0.0 | 1.0 | 0.00 | 0.00 | 0.00 | 69 | 1009.0 |
| 20260504040010 | 59 | 355 | 0.0 | 1.0 | 0.00 | 0.00 | 0.00 | 69 | 1008.6 |
| 20260504035909 | 60 | 355 | 0.0 | 1.0 | 0.00 | 0.00 | 0.00 | 69 | 1008.8 |
| 20260504035354 | 60 | 355 | 0.0 | 0.0 | 0.00 | 0.00 | 0.00 | 68 | 1008.8 |
| 20260504034841 | 60 | 355 | 0.0 | 0.0 | 0.00 | 0.00 | 0.00 | 68 | 1009.0 |
| 20260504034604 | 60 | 355 | 0.0 | 0.0 | 0.00 | 0.00 | 0.00 | 68 | 1008.8 |
| 20260504034406 | 61 | 355 | 0.0 | 0.0 | 0.00 | 0.00 | 0.00 | 67 | 1008.9 |
| 20260504033851 | 61 | 355 | 0.0 | 0.0 | 0.00 | 0.00 | 0.00 | 68 | 1009.0 |
| 20260504033356 | 61 | 355 | 0.0 | 1.0 | 0.00 | 0.00 | 0.00 | 67 | 1009.0 |
| 20260504033132 | 61 | 355 | 0.0 | 1.0 | 0.00 | 0.00 | 0.00 | 67 | 1008.8 |
| 20260504032841 | 61 | 355 | 0.0 | 1.0 | 0.00 | 0.00 | 0.00 | 67 | 1009.0 |
| 20260504032346 | 62 | 355 | 0.0 | 0.0 | 0.00 | 0.00 | 0.00 | 66 | 1009.1 |
| 20260504031852 | 62 | 355 | 0.0 | 0.0 | 0.00 | 0.00 | 0.00 | 66 | 1009.1 |
| 20260504031616 | 62 | 355 | 0.0 | 0.0 | 0.00 | 0.00 | 0.00 | 66 | 1008.9 |
| 20260504031341 | 62 | 355 | 0.0 | 0.0 | 0.00 | 0.00 | 0.00 | 65 | 1009.2 |
| 20260504030847 | 62 | 355 | 0.0 | 0.0 | 0.00 | 0.00 | 0.00 | 65 | 1009.2 |
| 20260504030408 | 63 | 355 | 0.0 | 0.0 | 0.00 | 0.00 | 0.00 | 65 | 1009.2 |
| 20260504030017 | 63 | 355 | 0.0 | 0.0 | 0.00 | 0.00 | 0.00 | 64 | 1009.0 |
| 20260504025915 | 63 | 355 | 0.0 | 0.0 | 0.00 | 0.00 | 0.00 | 64 | 1009.3 |
| 20260504025341 | 64 | 355 | 0.0 | 0.0 | 0.00 | 0.00 | 0.00 | 63 | 1009.2 |
| 20260504024846 | 64 | 355 | 0.0 | 0.0 | 0.00 | 0.00 | 0.00 | 62 | 1009.2 |
| 20260504024609 | 63 | 355 | 0.0 | 0.0 | 0.00 | 0.00 | 0.00 | 62 | 1009.1 |
| 20260504024351 | 64 | 355 | 0.0 | 0.0 | 0.00 | 0.00 | 0.00 | 62 | 1009.2 |
| 20260504023859 | 64 | 355 | 0.0 | 0.0 | 0.00 | 0.00 | 0.00 | 62 | 1009.1 |
| 20260504023344 | 65 | 355 | 0.0 | 0.0 | 0.00 | 0.00 | 0.00 | 61 | 1009.0 |
| 20260504023108 | 64 | 355 | 0.0 | 0.0 | 0.00 | 0.00 | 0.00 | 60 | 1008.8 |
| 20260504022850 | 65 | 355 | 0.0 | 0.0 | 0.00 | 0.00 | 0.00 | 60 | 1009.0 |
| 20260504022354 | 65 | 355 | 0.0 | 0.0 | 0.00 | 0.00 | 0.00 | 58 | 1009.0 |
| 20260504021845 | 66 | 355 | 0.0 | 0.0 | 0.00 | 0.00 | 0.00 | 58 | 1008.9 |
| 20260504021605 | 65 | 355 | 0.0 | 0.0 | 0.00 | 0.00 | 0.00 | 58 | 1008.8 |
| 20260504021350 | 66 | 355 | 0.0 | 0.0 | 0.00 | 0.00 | 0.00 | 57 | 1009.0 |
| 20260504020855 | 66 | 355 | 0.0 | 0.0 | 0.00 | 0.00 | 0.00 | 56 | 1009.0 |
| 20260504020340 | 67 | 355 | 0.0 | 0.0 | 0.00 | 0.00 | 0.00 | 56 | 1009.0 |
| 20260504020151 | 66 | 355 | 0.0 | 0.0 | 0.00 | 0.00 | 0.00 | 55 | 1008.8 |
| 20260504015847 | 67 | 355 | 0.0 | 0.0 | 0.00 | 0.00 | 0.00 | 55 | 1008.9 |
| 20260504015352 | 67 | 355 | 0.0 | 0.0 | 0.00 | 0.00 | 0.00 | 55 | 1009.0 |
| 20260504014858 | 67 | 355 | 0.0 | 0.0 | 0.00 | 0.00 | 0.00 | 54 | 1009.0 |
| 20260504014616 | 67 | 355 | 0.0 | 0.0 | 0.00 | 0.00 | 0.00 | 54 | 1008.8 |
| 20260504014342 | 67 | 355 | 0.0 | 0.0 | 0.00 | 0.00 | 0.00 | 53 | 1009.1 |
| 20260504013849 | 68 | 355 | 0.0 | 0.0 | 0.00 | 0.00 | 0.00 | 52 | 1009.1 |
| 20260504013355 | 68 | 355 | 0.0 | 0.0 | 0.00 | 0.00 | 0.00 | 53 | 1009.0 |
| 20260504013001 | 67 | 355 | 0.0 | 0.0 | 0.00 | 0.00 | 0.00 | 53 | 1008.8 |
| 20260504012900 | 68 | 355 | 0.0 | 0.0 | 0.00 | 0.00 | 0.00 | 54 | 1009.0 |
| 20260504012345 | 68 | 355 | 0.0 | 1.0 | 0.00 | 0.00 | 0.00 | 53 | 1008.6 |
| 20260504011913 | 68 | 355 | 0.0 | 2.0 | 0.00 | 0.00 | 0.00 | 52 | 1009.0 |
| 20260504011612 | 68 | 355 | 0.0 | 3.0 | 0.00 | 0.00 | 0.00 | 50 | 1008.9 |
| 20260504011356 | 68 | 355 | 0.0 | 3.0 | 0.00 | 0.00 | 0.00 | 50 | 1009.1 |
| 20260504010842 | 69 | 355 | 0.0 | 2.0 | 0.00 | 0.00 | 0.00 | 50 | 1008.9 |
| 20260504010348 | 69 | 355 | 0.0 | 0.0 | 0.00 | 0.00 | 0.00 | 51 | 1009.1 |
| 20260504010015 | 68 | 355 | 0.0 | 0.0 | 0.00 | 0.00 | 0.00 | 51 | 1008.8 |
| 20260504005915 | 69 | 355 | 0.0 | 0.0 | 0.00 | 0.00 | 0.00 | 51 | 1008.9 |
| 20260504005359 | 69 | 355 | 0.0 | 0.0 | 0.00 | 0.00 | 0.00 | 51 | 1008.7 |
| 20260504004845 | 69 | 355 | 0.0 | 0.0 | 0.00 | 0.00 | 0.00 | 51 | 1008.5 |
| 20260504004604 | 69 | 355 | 0.0 | 0.0 | 0.00 | 0.00 | 0.00 | 51 | 1008.4 |
| 20260504004349 | 70 | 355 | 0.0 | 0.0 | 0.00 | 0.00 | 0.00 | 50 | 1008.8 |
| 20260504003854 | 70 | 355 | 0.0 | 0.0 | 0.00 | 0.00 | 0.00 | 50 | 1009.0 |
| 20260504003340 | 70 | 355 | 0.0 | 0.0 | 0.00 | 0.00 | 0.00 | 49 | 1008.9 |
| 20260504003120 | 70 | 355 | 0.0 | 0.0 | 0.00 | 0.00 | 0.00 | 49 | 1008.8 |
| 20260504002846 | 70 | 355 | 0.0 | 0.0 | 0.00 | 0.00 | 0.00 | 49 | 1009.0 |
| 20260504002413 | 70 | 355 | 0.0 | 0.0 | 0.00 | 0.00 | 0.00 | 49 | 1009.0 |
| 20260504001858 | 71 | 355 | 0.0 | 0.0 | 0.00 | 0.00 | 0.00 | 49 | 1009.0 |
| 20260504001618 | 70 | 355 | 0.0 | 0.0 | 0.00 | 0.00 | 0.00 | 49 | 1008.9 |
| 20260504001344 | 71 | 355 | 0.0 | 0.0 | 0.00 | 0.00 | 0.00 | 49 | 1009.2 |
| 20260504000910 | 71 | 355 | 0.0 | 0.0 | 0.00 | 0.00 | 0.00 | 48 | 1009.3 |
| 20260504000355 | 71 | 355 | 0.0 | 0.0 | 0.00 | 0.00 | 0.00 | 48 | 1009.0 |
| 20260504000145 | 71 | 355 | 0.0 | 0.0 | 0.00 | 0.00 | 0.00 | 48 | 1009.0 |
| 20260503235842 | 71 | 355 | 0.0 | 3.0 | 0.00 | 0.00 | 0.00 | 48 | 1009.1 |
| 20260503235349 | 71 | 355 | 0.0 | 3.0 | 0.00 | 0.00 | 0.00 | 48 | 1009.1 |
| 20260503234856 | 72 | 355 | 0.0 | 0.0 | 0.00 | 0.00 | 0.00 | 48 | 1009.2 |
| 20260503234617 | 71 | 355 | 0.0 | 0.0 | 0.00 | 0.00 | 0.00 | 48 | 1009.0 |
| 20260503234343 | 72 | 355 | 0.0 | 0.0 | 0.00 | 0.00 | 0.00 | 48 | 1008.8 |
| 20260503233847 | 72 | 355 | 0.0 | 1.0 | 0.00 | 0.00 | 0.00 | 47 | 1009.0 |
| 20260503233415 | 72 | 355 | 0.0 | 1.0 | 0.00 | 0.00 | 0.00 | 46 | 1009.1 |
| 20260503233113 | 71 | 355 | 0.0 | 1.0 | 0.00 | 0.00 | 0.00 | 47 | 1009.0 |
| 20260503232859 | 72 | 355 | 0.0 | 1.0 | 0.00 | 0.00 | 0.00 | 46 | 1009.1 |
| 20260503232346 | 72 | 355 | 0.0 | 2.0 | 0.00 | 0.00 | 0.00 | 47 | 1009.0 |
| 20260503231914 | 72 | 355 | 0.0 | 4.0 | 0.00 | 0.00 | 0.00 | 46 | 1009.1 |
| 20260503231612 | 72 | 355 | 0.0 | 4.0 | 0.00 | 0.00 | 0.00 | 46 | 1008.9 |
| 20260503231358 | 73 | 348 | 0.0 | 2.0 | 0.00 | 0.00 | 0.00 | 47 | 1009.1 |
| 20260503230843 | 73 | 347 | 0.0 | 4.0 | 0.00 | 0.00 | 0.00 | 48 | 1009.1 |
| 20260503230349 | 73 | 347 | 0.0 | 4.0 | 0.00 | 0.00 | 0.00 | 47 | 1009.3 |
| 20260503230140 | 72 | 347 | 0.0 | 4.0 | 0.00 | 0.00 | 0.00 | 47 | 1009.1 |
| 20260503225856 | 73 | 355 | 0.0 | 4.0 | 0.00 | 0.00 | 0.00 | 48 | 1009.3 |
| 20260503225342 | 73 | 350 | 1.0 | 4.0 | 0.00 | 0.00 | 0.00 | 48 | 1009.1 |
| 20260503224848 | 73 | 15 | 1.0 | 4.0 | 0.00 | 0.00 | 0.00 | 48 | 1009.1 |
| 20260503224615 | 72 | 290 | 0.0 | 2.0 | 0.00 | 0.00 | 0.00 | 48 | 1009.0 |
| 20260503224354 | 73 | 290 | 0.0 | 3.0 | 0.00 | 0.00 | 0.00 | 48 | 1009.2 |
| 20260503223900 | 73 | 290 | 1.0 | 3.0 | 0.00 | 0.00 | 0.00 | 48 | 1009.4 |
| 20260503223345 | 73 | 261 | 0.0 | 3.0 | 0.00 | 0.00 | 0.00 | 48 | 1009.3 |
| 20260503223114 | 72 | 261 | 0.0 | 3.0 | 0.00 | 0.00 | 0.00 | 48 | 1009.1 |
| 20260503222850 | 73 | 261 | 1.0 | 3.0 | 0.00 | 0.00 | 0.00 | 48 | 1009.2 |
| 20260503222356 | 73 | 342 | 0.0 | 2.0 | 0.00 | 0.00 | 0.00 | 49 | 1009.4 |
| 20260503221842 | 73 | 342 | 0.0 | 3.0 | 0.00 | 0.00 | 0.00 | 48 | 1009.1 |
| 20260503221623 | 72 | 342 | 0.0 | 3.0 | 0.00 | 0.00 | 0.00 | 48 | 1009.3 |
| 20260503221347 | 73 | 342 | 1.0 | 3.0 | 0.00 | 0.00 | 0.00 | 48 | 1009.5 |
| 20260503220914 | 73 | 237 | 1.0 | 3.0 | 0.00 | 0.00 | 0.00 | 48 | 1009.3 |
| 20260503220359 | 73 | 237 | 0.0 | 3.0 | 0.00 | 0.00 | 0.00 | 48 | 1009.2 |
| 20260503220150 | 72 | 235 | 0.0 | 3.0 | 0.00 | 0.00 | 0.00 | 48 | 1008.7 |
| 20260503215846 | 73 | 240 | 1.0 | 3.0 | 0.00 | 0.00 | 0.00 | 47 | 1008.3 |
| 20260503215351 | 73 | 242 | 1.0 | 3.0 | 0.00 | 0.00 | 0.00 | 47 | 1009.0 |
| 20260503214857 | 73 | 242 | 1.0 | 4.0 | 0.00 | 0.00 | 0.00 | 48 | 1009.1 |
| 20260503214500 | 72 | 242 | 1.0 | 4.0 | 0.00 | 0.00 | 0.00 | 47 | 1009.2 |
| 20260503214400 | 73 | 244 | 2.0 | 4.0 | 0.00 | 0.00 | 0.00 | 46 | 1009.4 |
| 20260503213845 | 73 | 262 | 1.0 | 4.0 | 0.00 | 0.00 | 0.00 | 46 | 1009.4 |
| 20260503213352 | 73 | 277 | 1.0 | 4.0 | 0.00 | 0.00 | 0.00 | 46 | 1009.4 |
| 20260503212919 | 73 | 219 | 1.0 | 6.0 | 0.00 | 0.00 | 0.00 | 47 | 1009.2 |
| 20260503212343 | 73 | 220 | 2.0 | 8.0 | 0.00 | 0.00 | 0.00 | 46 | 1009.4 |
| 20260503211848 | 73 | 262 | 2.0 | 8.0 | 0.00 | 0.00 | 0.00 | 46 | 1009.4 |
| 20260503211608 | 73 | 248 | 2.0 | 8.0 | 0.00 | 0.00 | 0.00 | 45 | 1009.6 |
| 20260503211356 | 73 | 251 | 3.0 | 8.0 | 0.00 | 0.00 | 0.00 | 45 | 1009.6 |
| 20260503210840 | 73 | 232 | 1.0 | 7.0 | 0.00 | 0.00 | 0.00 | 46 | 1009.4 |
| 20260503210346 | 73 | 252 | 2.0 | 7.0 | 0.00 | 0.00 | 0.00 | 45 | 1009.6 |
| 20260503210140 | 73 | 223 | 1.0 | 7.0 | 0.00 | 0.00 | 0.00 | 46 | 1009.6 |
| 20260503205855 | 73 | 247 | 2.0 | 8.0 | 0.00 | 0.00 | 0.00 | 44 | 1009.8 |
| 20260503205401 | 73 | 274 | 3.0 | 8.0 | 0.00 | 0.00 | 0.00 | 44 | 1009.8 |
| 20260503204844 | 73 | 249 | 2.0 | 8.0 | 0.00 | 0.00 | 0.00 | 45 | 1010.0 |
| 20260503204607 | 73 | 317 | 2.0 | 11.0 | 0.00 | 0.00 | 0.00 | 44 | 1010.0 |
| 20260503204348 | 73 | 237 | 3.0 | 11.0 | 0.00 | 0.00 | 0.00 | 45 | 1010.1 |
| 20260503203854 | 73 | 297 | 2.0 | 5.0 | 0.00 | 0.00 | 0.00 | 45 | 1010.1 |
| 20260503203341 | 73 | 271 | 3.0 | 5.0 | 0.00 | 0.00 | 0.00 | 45 | 1010.1 |
| 20260503203104 | 73 | 258 | 1.0 | 7.0 | 0.00 | 0.00 | 0.00 | 45 | 1010.0 |
| 20260503202907 | 73 | 209 | 1.0 | 9.0 | 0.00 | 0.00 | 0.00 | 45 | 1010.1 |
| 20260503202350 | 73 | 225 | 3.0 | 10.0 | 0.00 | 0.00 | 0.00 | 44 | 1010.1 |
| 20260503201918 | 73 | 275 | 3.0 | 10.0 | 0.00 | 0.00 | 0.00 | 44 | 1010.0 |
| 20260503201617 | 73 | 245 | 2.0 | 10.0 | 0.00 | 0.00 | 0.00 | 46 | 1010.0 |
| 20260503201341 | 73 | 225 | 2.0 | 10.0 | 0.00 | 0.00 | 0.00 | 47 | 1010.0 |
| 20260503200847 | 73 | 237 | 1.0 | 7.0 | 0.00 | 0.00 | 0.00 | 46 | 1010.0 |
| 20260503200352 | 73 | 265 | 3.0 | 8.0 | 0.00 | 0.00 | 0.00 | 45 | 1010.1 |
| 20260503200001 | 73 | 269 | 1.0 | 6.0 | 0.00 | 0.00 | 0.00 | 45 | 1010.1 |
| 20260503195900 | 73 | 267 | 2.0 | 6.0 | 0.00 | 0.00 | 0.00 | 45 | 1010.1 |
| 20260503195406 | 73 | 319 | 3.0 | 9.0 | 0.00 | 0.00 | 0.00 | 44 | 1010.5 |
| 20260503194851 | 73 | 248 | 4.0 | 10.0 | 0.00 | 0.00 | 0.00 | 43 | 1010.5 |
| 20260503194627 | 73 | 251 | 3.0 | 10.0 | 0.00 | 0.00 | 0.00 | 44 | 1010.5 |
| 20260503194354 | 73 | 246 | 4.0 | 10.0 | 0.00 | 0.00 | 0.00 | 44 | 1010.4 |
| 20260503193858 | 73 | 246 | 3.0 | 10.0 | 0.00 | 0.00 | 0.00 | 44 | 1010.7 |
| 20260503193359 | 73 | 239 | 2.0 | 10.0 | 0.00 | 0.00 | 0.00 | 45 | 1010.7 |
| 20260503193120 | 72 | 250 | 3.0 | 10.0 | 0.00 | 0.00 | 0.00 | 45 | 1010.6 |
| 20260503192845 | 73 | 250 | 3.0 | 10.0 | 0.00 | 0.00 | 0.00 | 46 | 1010.7 |
| 20260503192349 | 72 | 263 | 1.0 | 7.0 | 0.00 | 0.00 | 0.00 | 48 | 1010.6 |
| 20260503191914 | 72 | 247 | 2.0 | 9.0 | 0.00 | 0.00 | 0.00 | 48 | 1010.9 |
| 20260503191613 | 71 | 237 | 1.0 | 9.0 | 0.00 | 0.00 | 0.00 | 48 | 1010.7 |
| 20260503191420 | 71 | 240 | 4.0 | 9.0 | 0.00 | 0.00 | 0.00 | 46 | 1010.8 |
| 20260503190844 | 71 | 246 | 3.0 | 9.0 | 0.00 | 0.00 | 0.00 | 47 | 1010.9 |
| 20260503190351 | 70 | 227 | 3.0 | 8.0 | 0.00 | 0.00 | 0.00 | 47 | 1011.0 |
| 20260503190141 | 70 | 245 | 2.0 | 8.0 | 0.00 | 0.00 | 0.00 | 48 | 1011.0 |
| 20260503185857 | 70 | 161 | 2.0 | 7.0 | 0.00 | 0.00 | 0.00 | 49 | 1011.0 |
| 20260503185344 | 70 | 197 | 1.0 | 8.0 | 0.00 | 0.00 | 0.00 | 50 | 1011.1 |
| 20260503184849 | 69 | 211 | 1.0 | 9.0 | 0.00 | 0.00 | 0.00 | 49 | 1011.1 |
| 20260503184610 | 69 | 238 | 2.0 | 9.0 | 0.00 | 0.00 | 0.00 | 47 | 1011.2 |
| 20260503184357 | 69 | 245 | 2.0 | 9.0 | 0.00 | 0.00 | 0.00 | 48 | 1011.2 |
| 20260503183859 | 69 | 232 | 4.0 | 8.0 | 0.00 | 0.00 | 0.00 | 48 | 1011.0 |
| 20260503183402 | 68 | 244 | 1.0 | 8.0 | 0.00 | 0.00 | 0.00 | 48 | 1011.4 |
| 20260503183119 | 68 | 246 | 2.0 | 8.0 | 0.00 | 0.00 | 0.00 | 50 | 1011.6 |
| 20260503182846 | 68 | 243 | 2.0 | 9.0 | 0.00 | 0.00 | 0.00 | 49 | 1011.6 |
| 20260503182353 | 68 | 241 | 3.0 | 14.0 | 0.00 | 0.00 | 0.00 | 48 | 1011.2 |
| 20260503181857 | 67 | 219 | 4.0 | 14.0 | 0.00 | 0.00 | 0.00 | 48 | 1011.3 |
| 20260503181619 | 67 | 248 | 6.0 | 13.0 | 0.00 | 0.00 | 0.00 | 48 | 1011.1 |
| 20260503181343 | 67 | 191 | 6.0 | 13.0 | 0.00 | 0.00 | 0.00 | 47 | 1011.2 |
| 20260503180848 | 67 | 250 | 3.0 | 12.0 | 0.00 | 0.00 | 0.00 | 48 | 1011.6 |
| 20260503180353 | 67 | 244 | 1.0 | 5.0 | 0.00 | 0.00 | 0.00 | 50 | 1011.8 |
| 20260503180005 | 66 | 254 | 2.0 | 5.0 | 0.00 | 0.00 | 0.00 | 48 | 1011.9 |
| 20260503175900 | 66 | 236 | 2.0 | 7.0 | 0.00 | 0.00 | 0.00 | 50 | 1011.9 |
| 20260503175346 | 66 | 215 | 2.0 | 7.0 | 0.00 | 0.00 | 0.00 | 50 | 1012.1 |
| 20260503174912 | 66 | 241 | 1.0 | 9.0 | 0.00 | 0.00 | 0.00 | 50 | 1012.2 |